Date,TemperatureHighF,TemperatureAvgF,TemperatureLowF,DewpointHighF,DewpointAvgF,DewpointLowF,HumidityHigh,HumidityAvg,HumidityLow,PressureMaxIn,PressureMinIn,WindSpeedMaxMPH,WindSpeedAvgMPH,GustSpeedMaxMPH,PrecipitationSumIn
2013-1-1,58,54,52,52,49,47,87,82,77,30.16,30.08,9,4,16,0.00
2013-1-2,61,55,49,55,50,46,89,85,79,30.33,30.16,6,3,10,0.00
2013-1-3,62,55,51,54,50,47,90,83,75,30.42,30.32,6,3,10,0.00
2013-1-4,62,56,52,48,45,42,75,65,53,30.35,30.11,7,2,13,0.00
2013-1-6,50,47,45,42,39,-100,80,74,71,29.92,29.78,20,10,32,0.00
2013-1-7,57,48,43,41,35,30,72,61,49,29.99,29.86,20,7,28,0.00
2013-1-8,46,38,36,36,28,-100,93,75,53,30.23,29.99,19,10,33,0.02
2013-1-9,49,42,38,36,30,-100,74,64,57,30.26,30.17,13,4,16,0.00
2013-1-10,54,48,41,43,37,30,73,65,54,30.20,30.04,9,3,18,0.00
2013-1-11,64,58,50,56,53,42,94,83,72,30.03,29.82,19,4,31,0.05
2013-1-12,62,56,51,54,50,47,92,81,70,30.04,29.82,10,2,21,0.00
2013-1-13,60,54,49,50,47,44,87,77,63,30.24,30.05,8,3,14,0.00
2013-1-14,60,56,52,55,51,47,86,82,77,30.29,30.23,13,6,26,0.00
2013-1-15,62,58,54,58,54,-100,93,86,79,30.26,30.02,20,8,33,0.05
2013-1-16,62,58,54,58,54,48,96,85,69,30.02,29.68,28,14,38,1.38
2013-1-17,62,58,52,57,50,-100,87,78,72,29.78,29.65,23,10,30,0.00
2013-1-18,61,57,50,57,51,44,92,82,70,29.65,29.46,27,14,38,0.11
2013-1-19,58,54,49,48,45,44,84,74,66,29.88,29.54,10,4,21,0.00
2013-1-20,58,54,53,50,47,46,79,77,72,29.96,29.86,4,1,6,0.00
2013-1-24,62,54,51,57,46,-100,93,87,83,29.65,29.59,18,6,31,0.31
2013-1-25,60,54,50,55,48,-100,93,84,75,29.66,29.49,25,9,39,0.27
2013-1-26,62,54,49,54,49,46,92,84,74,29.67,29.44,16,5,22,0.22
2013-1-27,54,50,48,47,45,44,88,83,73,29.95,29.67,12,6,18,0.00
2013-1-28,56,52,49,50,46,44,86,79,71,30.01,29.91,8,3,14,0.00
2013-1-29,54,51,48,46,45,42,87,80,73,30.11,30.00,12,5,17,0.00
2013-1-30,59,53,47,50,42,36,82,67,45,30.11,29.96,9,3,14,0.00
2013-1-31,60,56,50,53,45,38,78,68,53,30.04,29.84,17,4,30,0.00
2013-2-1,61,56,51,50,43,36,75,62,48,30.07,29.91,22,4,34,0.00
2013-2-2,64,59,53,59,52,-100,88,82,72,29.91,29.77,18,4,26,0.00
2013-2-3,64,62,60,59,59,57,95,89,81,29.93,29.78,26,15,40,0.00
2013-2-4,65,62,60,61,59,58,96,91,86,29.99,29.92,13,3,17,0.00
2013-2-5,66,60,57,59,56,51,93,84,71,30.00,29.85,8,3,11,0.00
2013-2-6,62,58,53,58,53,48,89,83,75,29.84,29.68,7,2,12,0.00
2013-2-7,62,59,54,57,53,49,92,83,72,29.71,29.51,29,16,36,0.45
2013-2-8,60,56,51,50,48,45,83,74,67,29.75,29.54,16,6,26,0.02
2013-2-9,60,55,49,49,46,44,83,74,62,29.88,29.76,11,5,17,0.00
2013-2-10,60,55,52,48,46,43,75,70,62,29.89,29.80,11,3,14,0.00
2013-2-11,56,52,49,46,42,40,83,70,57,30.06,29.78,12,6,21,0.00
2013-2-12,60,55,47,54,47,39,84,75,66,30.08,29.99,20,7,25,0.00
2013-2-13,59,56,50,54,52,48,96,86,78,30.00,29.89,22,10,36,1.04
2013-2-14,58,52,49,53,48,47,95,89,75,29.90,29.69,22,6,27,0.30
2013-2-15,54,51,48,49,47,44,92,85,79,30.04,29.69,16,5,19,0.06
2013-2-16,59,53,49,52,48,45,93,84,74,30.07,30.01,11,4,15,0.23
2013-2-17,50,48,47,48,44,-100,94,88,81,30.08,29.95,18,7,24,0.23
2013-2-18,57,50,45,46,44,41,86,78,65,30.10,30.05,9,4,13,0.00
2013-2-19,60,55,50,54,50,44,93,83,74,30.06,29.78,18,5,24,0.06
2013-2-20,60,54,50,49,45,41,83,70,57,30.06,29.83,10,4,18,0.00
2013-2-21,58,55,51,55,48,45,90,79,71,30.05,29.70,12,4,19,0.06
2013-2-22,60,56,52,56,53,50,98,91,84,29.74,29.57,13,6,23,1.73
2013-2-23,64,57,52,58,54,50,94,88,82,30.03,29.74,6,1,23,0.00
2013-2-24,65,61,55,61,57,52,97,88,81,30.10,30.02,15,6,19,0.00
2013-2-25,64,62,60,61,58,56,96,88,81,30.09,29.98,17,9,23,0.00
2013-2-26,68,61,55,60,55,48,98,82,57,30.05,29.96,15,5,25,0.00
2013-2-27,60,56,53,50,48,45,84,75,60,30.07,29.96,11,5,25,0.00
2013-2-28,55,52,50,46,45,43,82,77,70,30.22,30.07,14,7,20,0.00
2013-3-1,58,52,47,47,44,41,82,73,62,30.20,30.02,7,2,11,0.00
2013-3-2,59,54,48,52,48,44,86,79,74,30.03,29.88,13,4,18,0.00
2013-3-3,57,54,51,51,47,43,90,78,66,29.97,29.76,25,14,32,0.05
2013-3-4,62,55,49,50,46,42,80,73,60,30.18,29.97,9,3,16,0.00
2013-3-5,58,53,50,46,44,41,79,70,62,30.42,30.18,14,9,21,0.00
2013-3-6,58,53,48,46,43,40,74,68,59,30.41,30.15,13,5,21,0.00
2013-3-7,59,56,54,55,50,45,92,83,71,30.16,29.93,8,1,12,0.16
2013-3-8,63,58,54,58,55,52,94,91,83,29.93,29.86,4,1,7,0.00
2013-3-9,69,61,55,62,57,54,96,86,73,29.86,29.73,8,2,12,0.01
2013-3-10,67,62,59,60,56,54,91,80,64,29.83,29.73,10,3,14,0.00
2013-3-11,67,62,58,62,58,53,94,88,72,29.73,29.59,10,2,14,0.00
2013-3-12,69,63,59,56,52,51,79,70,56,29.72,29.60,11,6,23,0.00
2013-3-13,67,61,57,59,55,50,94,80,68,29.75,29.69,17,6,23,0.00
2013-3-14,65,62,59,60,58,50,94,85,69,29.71,29.30,22,13,33,0.00
2013-3-15,62,58,54,52,49,44,78,72,65,29.62,29.38,17,8,36,0.00
2013-3-16,58,53,50,46,44,41,82,71,59,30.01,29.60,13,6,36,0.00
2013-3-17,57,52,47,43,42,40,79,70,55,30.18,30.01,8,4,17,0.00
2013-3-18,59,54,49,53,47,41,87,78,66,30.19,29.95,13,6,14,0.00
2013-3-19,63,60,57,59,56,52,94,87,82,29.97,29.77,19,9,22,0.00
2013-3-20,67,60,56,62,55,-100,94,87,78,29.92,29.81,9,2,21,0.00
2013-3-21,66,63,61,60,59,49,93,86,64,29.81,29.54,16,9,21,0.00
2013-3-22,63,59,56,49,47,44,78,64,53,29.77,29.54,18,14,38,0.00
2013-3-23,65,58,52,52,44,31,79,60,36,29.97,29.77,12,5,29,0.00
2013-3-24,64,59,53,59,54,47,90,82,76,30.02,29.93,14,6,17,0.00
2013-3-25,64,61,58,60,58,54,96,89,81,29.95,29.61,20,10,28,0.00
2013-3-26,68,62,59,59,55,52,96,78,67,29.66,29.53,11,6,28,0.01
2013-3-27,70,62,58,61,55,51,85,77,70,29.83,29.65,12,3,23,0.00
2013-3-28,66,61,58,58,56,53,90,84,73,30.06,29.83,10,3,20,0.05
2013-3-29,65,60,57,60,57,54,92,88,78,30.07,30.00,5,2,10,0.00
2013-3-30,72,65,60,62,58,56,91,81,64,30.00,29.83,12,2,12,0.00
2013-3-31,68,64,62,64,60,58,94,89,79,29.86,29.73,9,4,13,0.00
2013-4-1,72,65,59,60,55,51,95,70,48,29.88,29.77,10,5,20,0.00
2013-4-2,68,64,60,60,57,52,86,78,72,29.88,29.57,16,5,20,0.00
2013-4-3,70,64,60,61,56,52,94,76,57,29.67,29.47,15,8,30,0.00
2013-4-4,71,64,59,55,54,52,82,70,55,29.93,29.67,13,8,27,0.00
2013-4-5,66,63,60,62,56,51,89,80,67,29.95,29.78,19,7,33,0.00
2013-4-6,70,66,61,62,58,54,87,76,61,29.82,29.70,9,2,22,0.00
2013-4-7,72,66,63,63,57,-100,93,75,61,29.70,29.32,19,7,31,0.00
2013-4-8,63,61,59,57,54,52,88,79,73,29.89,29.41,12,5,22,0.00
2013-4-9,66,62,57,59,54,51,84,77,66,30.00,29.89,11,4,17,0.00
2013-4-10,68,62,58,60,56,53,90,81,71,30.00,29.92,11,4,16,0.00
2013-4-11,71,64,58,62,57,52,91,77,59,30.03,29.91,11,4,16,0.00
2013-4-12,69,64,60,63,58,54,89,81,74,30.08,29.99,8,2,13,0.00
2013-4-13,70,66,61,64,59,54,87,79,67,30.11,30.06,10,2,13,0.00
2013-4-14,77,67,63,60,51,-100,83,66,50,30.10,30.03,20,7,33,0.01
2013-4-15,66,62,58,53,51,48,75,67,53,30.10,30.01,18,8,29,0.00
2013-4-16,66,60,56,51,49,47,83,68,53,30.08,30.00,18,10,31,0.02
2013-4-17,69,62,57,49,45,40,71,54,37,30.10,30.04,15,8,25,0.00
2013-4-18,66,61,57,46,42,39,62,50,39,30.09,30.01,19,9,32,0.00
2013-4-19,64,60,56,50,44,-100,70,58,54,30.02,29.94,16,8,29,0.05
2013-4-20,67,61,57,51,36,-100,72,56,51,30.04,29.97,14,8,31,0.00
2013-4-21,73,65,59,60,51,45,82,62,45,30.04,29.95,13,4,21,0.00
2013-4-22,71,65,60,60,55,48,84,71,49,30.07,29.98,10,3,17,0.00
2013-4-23,72,66,61,61,55,50,79,69,59,30.23,30.07,7,3,14,0.00
2013-4-24,74,66,62,63,53,-100,84,68,51,30.32,30.22,7,3,12,0.00
2013-4-25,79,73,67,64,57,52,69,58,47,30.29,30.16,9,3,17,0.00
2013-4-26,82,72,66,64,57,51,72,61,43,30.18,30.00,9,2,16,0.00
2013-4-27,78,71,68,67,59,53,78,65,54,30.00,29.91,9,3,15,0.00
2013-4-28,76,70,65,68,61,50,89,76,47,30.05,29.94,7,2,13,0.00
2013-4-29,79,72,66,69,58,50,78,63,48,30.12,30.05,5,2,10,0.00
2013-4-30,89,78,68,67,59,52,68,52,43,30.11,30.02,10,3,15,0.00
2013-5-1,90,81,74,66,60,55,57,49,42,30.06,29.95,13,5,20,0.00
2013-5-2,89,81,75,60,55,-100,51,42,34,29.96,29.89,13,6,22,0.00
2013-5-3,85,76,71,69,59,-100,83,60,45,29.92,29.83,8,3,17,0.00
2013-5-4,86,74,70,73,64,60,78,72,51,29.96,29.84,11,2,13,0.00
2013-5-5,84,76,72,70,65,60,77,68,53,30.05,29.93,6,2,13,0.00
2013-5-6,88,80,74,68,64,61,75,58,46,30.06,29.97,16,8,25,0.00
2013-5-7,85,77,71,68,63,59,84,63,47,29.99,29.85,14,5,25,0.00
2013-5-8,80,71,68,68,64,62,89,80,61,29.91,29.81,12,3,16,0.00
2013-5-9,75,68,65,66,62,59,92,79,72,29.90,29.82,17,6,25,0.31
2013-5-10,74,68,62,64,60,58,89,76,63,29.91,29.83,10,5,19,0.00
2013-5-11,75,70,65,68,64,58,89,83,69,29.89,29.76,11,3,17,0.00
2013-5-12,81,72,68,68,65,60,87,78,62,29.77,29.65,13,5,21,0.00
2013-5-13,78,70,66,62,60,58,80,71,59,29.70,29.63,15,5,26,0.00
2013-5-14,75,67,62,61,59,56,90,75,62,29.85,29.68,12,6,18,0.13
2013-5-15,76,70,64,68,62,56,87,77,70,29.88,29.83,10,3,17,0.00
2013-5-16,74,69,66,69,64,61,90,84,77,29.92,29.84,12,3,18,0.00
2013-5-17,78,71,66,68,66,64,93,85,70,29.93,29.83,15,3,15,0.00
2013-5-18,80,75,69,72,67,64,87,78,65,30.00,29.90,7,1,13,0.00
2013-5-19,87,78,73,74,66,-100,85,71,57,29.97,29.90,9,1,15,0.00
2013-5-20,89,78,72,75,70,65,88,75,62,29.92,29.87,8,2,12,0.00
2013-5-21,77,76,75,68,63,60,73,64,59,29.92,29.88,9,5,17,0.00
2013-6-1,73,69,66,65,58,-100,89,70,58,29.87,29.78,11,5,29,0.02
2013-6-2,69,68,67,63,62,60,84,80,77,29.78,29.71,5,2,6,0.00
2013-6-7,78,73,70,69,66,60,93,81,56,29.99,29.85,7,2,10,0.00
2013-6-9,78,78,78,70,70,70,77,77,77,29.92,29.92,3,3,7,0.00
2013-6-10,75,75,75,69,68,67,82,79,77,29.82,29.82,3,3,3,0.00
2013-6-11,85,79,75,70,67,63,75,67,53,29.83,29.61,16,4,20,0.00
2013-6-12,82,75,68,70,64,60,85,69,57,29.77,29.65,13,6,18,0.06
2013-6-13,78,72,68,66,64,62,88,76,64,29.84,29.74,12,6,18,0.00
2013-6-14,80,74,69,68,65,63,87,76,65,29.92,29.83,11,5,15,0.02
2013-6-15,82,77,72,75,68,63,85,75,67,29.93,29.88,9,2,12,0.00
2013-6-16,88,78,74,77,71,64,92,77,61,29.96,29.91,8,2,11,0.00
2013-6-17,90,84,76,75,70,66,79,65,49,29.97,29.92,11,3,17,0.00
2013-6-18,93,87,82,70,68,66,64,55,45,29.96,29.90,21,9,25,0.00
2013-6-19,94,87,81,70,68,62,60,52,44,29.92,29.84,20,11,28,0.00
2013-6-20,95,88,82,70,67,64,58,51,44,29.94,29.84,22,10,34,0.00
2013-6-21,92,85,80,70,67,64,64,55,48,29.94,29.88,12,8,18,0.00
2013-6-22,98,87,78,68,65,61,62,48,34,29.92,29.82,13,6,17,0.00
2013-6-23,91,85,80,76,68,62,73,59,48,29.85,29.76,10,3,11,0.00
2013-6-24,91,83,79,80,72,67,82,69,56,29.79,29.74,9,3,13,0.00
2013-6-25,94,85,80,77,70,66,77,63,48,29.77,29.73,10,4,16,0.00
2013-6-26,90,82,77,78,70,64,87,67,52,29.86,29.76,10,6,15,0.00
2013-6-27,92,83,78,77,72,69,86,70,54,29.90,29.84,8,4,16,0.00
2013-6-28,88,81,77,76,71,67,86,74,58,29.91,29.86,13,5,20,0.00
2013-6-29,86,79,75,75,67,-100,82,68,52,29.91,29.74,12,4,24,0.00
2013-6-30,88,79,74,71,65,60,81,63,48,29.86,29.74,12,7,20,0.00
2013-7-1,88,79,73,72,66,60,82,66,42,30.00,29.86,14,6,15,0.00
2013-7-2,87,79,74,74,69,63,85,72,52,30.01,29.93,12,4,17,0.00
2013-7-3,87,81,76,73,67,60,83,62,50,29.96,29.86,10,4,14,0.00
2013-7-4,87,82,76,74,67,62,74,62,48,29.91,29.83,13,4,16,0.00
2013-7-5,89,83,77,70,65,60,59,54,48,29.91,29.83,13,7,23,0.00
2013-7-6,87,82,79,70,66,-100,71,60,53,29.88,29.82,16,9,30,0.00
2013-7-7,92,85,80,72,69,68,69,59,50,29.94,29.83,17,10,21,0.00
2013-7-8,94,86,81,70,68,66,65,54,43,29.96,29.90,11,7,18,0.00
2013-7-9,94,88,82,72,69,66,61,54,45,29.96,29.81,12,7,19,0.00
2013-7-10,94,86,80,74,70,64,71,60,47,29.84,29.71,10,6,15,0.00
2013-7-11,93,84,80,76,69,64,80,61,48,29.82,29.74,13,5,21,0.00
2013-7-12,87,80,79,77,65,-100,84,70,54,29.89,29.81,13,3,17,0.00
2013-7-13,93,86,80,76,71,67,78,61,48,29.90,29.84,10,5,14,0.00
2013-7-14,94,86,82,73,67,-100,72,54,44,29.90,29.82,12,6,22,0.00
2013-7-15,91,84,79,76,69,64,78,60,50,29.89,29.82,12,4,16,0.00
2013-7-16,91,85,80,74,68,64,73,57,47,29.91,29.84,12,4,21,0.00
2013-7-17,83,80,75,69,66,63,75,64,53,29.96,29.91,18,10,26,0.00
2013-7-18,87,82,77,66,65,63,68,58,46,30.00,29.94,18,10,33,0.00
2013-7-19,90,83,77,66,64,61,66,53,43,29.99,29.88,14,8,23,0.00
2013-7-20,91,84,78,68,64,61,59,52,43,29.90,29.79,13,7,21,0.00
2013-7-21,94,91,86,70,68,66,52,47,43,29.87,29.79,14,9,24,0.00
2013-7-22,87,82,78,71,68,65,73,62,52,29.88,29.82,14,8,22,0.00
2013-7-23,89,82,76,67,64,59,68,55,41,29.87,29.82,16,9,20,0.00
2013-7-24,99,88,79,73,63,57,52,44,35,29.89,29.85,15,6,23,0.00
2013-7-25,91,86,81,79,68,61,74,57,46,29.92,29.84,10,3,13,0.00
2013-7-26,96,86,82,81,70,62,79,58,44,29.88,29.80,9,3,12,0.00
2013-7-27,95,89,84,79,68,64,72,52,43,29.91,29.81,14,5,16,0.00
2013-7-28,95,88,83,76,68,65,61,53,46,29.98,29.90,14,8,19,0.00
2013-7-29,96,89,82,69,67,65,59,49,39,29.99,29.90,16,7,22,0.00
2013-7-30,95,89,84,80,71,64,76,56,46,29.90,29.73,11,2,15,0.00
2013-7-31,99,91,85,77,72,68,62,54,47,29.77,29.68,17,8,24,0.00
2013-8-1,91,86,82,73,68,-100,73,60,51,29.92,29.78,19,11,28,0.00
2013-8-2,91,86,81,70,68,64,67,55,46,29.93,29.90,17,9,26,0.00
2013-8-3,93,87,82,71,67,64,65,52,43,29.92,29.88,18,9,30,0.00
2013-8-4,97,90,84,72,67,64,55,48,37,29.92,29.88,18,8,26,0.00
2013-8-5,90,86,82,70,65,61,62,50,41,29.94,29.88,22,13,34,0.00
2013-8-6,90,85,80,66,64,62,59,50,40,29.91,29.84,19,12,30,0.00
2013-8-7,92,86,81,67,65,63,61,51,42,29.92,29.84,18,12,29,0.00
2013-8-8,95,88,83,68,65,61,53,47,37,29.92,29.88,20,10,31,0.00
2013-8-9,96,88,82,70,67,64,61,51,41,29.92,29.78,15,8,20,0.00
2013-8-10,95,85,79,77,71,63,89,64,45,29.79,29.63,15,7,22,0.00
2013-8-11,92,88,79,74,66,62,84,50,40,29.82,29.65,14,9,23,0.00
2013-8-12,91,87,82,70,67,64,63,52,43,29.91,29.83,12,7,19,0.00
2013-8-13,95,93,84,68,67,64,52,43,41,29.90,29.82,15,12,19,0.00
2013-8-14,94,86,84,66,65,64,54,50,39,29.82,29.79,9,6,11,0.00
2013-8-15,97,92,84,69,67,64,54,45,38,29.82,29.78,16,10,24,0.00
2013-8-16,90,87,82,74,72,70,67,61,55,29.86,29.81,17,11,27,0.00
2013-8-17,93,86,81,72,71,69,70,61,49,29.90,29.82,16,10,25,0.00
2013-8-18,93,86,80,70,67,64,65,53,44,29.95,29.88,14,9,24,0.00
2013-8-19,95,87,81,70,66,62,56,49,40,29.93,29.84,15,6,24,0.00
2013-8-20,96,88,82,70,66,63,58,48,36,29.88,29.80,17,8,31,0.00
2013-8-21,90,84,80,70,67,63,65,55,45,29.87,29.83,14,7,23,0.00
2013-8-22,88,83,78,71,68,65,68,61,51,29.86,29.81,12,7,29,0.00
2013-8-23,91,85,79,69,65,60,66,53,42,29.91,29.83,11,6,27,0.00
2013-8-24,88,83,79,77,67,59,80,59,46,29.92,29.85,8,2,17,0.06
2013-8-25,89,83,79,77,71,64,78,67,55,29.86,29.82,10,2,15,0.00
2013-8-26,92,84,80,80,71,66,79,66,50,29.88,29.82,9,2,14,0.00
2013-8-27,93,87,83,82,76,72,81,70,53,29.88,29.82,7,3,12,0.00
2013-8-28,94,86,81,81,75,72,79,70,54,29.85,29.80,10,4,22,0.00
2013-8-29,93,86,81,80,76,72,87,73,54,29.89,29.82,11,4,20,0.00
2013-8-30,94,86,81,79,72,68,83,65,50,29.92,29.83,10,4,21,0.00
2013-8-31,89,83,79,76,68,62,83,62,49,29.97,29.89,12,7,21,0.00
2013-9-1,87,81,76,70,64,58,74,58,46,30.05,29.97,11,6,22,0.00
2013-9-2,87,81,76,71,64,55,70,55,44,30.07,29.98,9,5,16,0.00
2013-9-3,88,81,76,75,71,66,79,72,63,30.07,29.95,12,3,19,0.00
2013-9-5,77,77,77,65,64,63,67,65,63,29.99,29.97,4,2,15,0.00
2013-9-6,84,78,74,73,69,62,80,72,66,29.96,29.87,10,3,21,0.00
2013-9-7,81,78,76,73,71,66,84,78,66,30.00,29.91,9,2,16,0.00
2013-9-8,88,80,75,74,66,59,73,62,49,30.10,30.00,16,5,27,0.00
2013-9-9,88,80,75,70,62,58,65,54,47,30.14,30.06,13,6,22,0.00
2013-9-10,84,79,75,74,67,58,81,67,50,30.08,30.00,8,2,13,0.00
2013-9-11,86,80,76,78,72,65,86,77,65,30.02,29.93,7,2,13,0.00
2013-9-12,88,82,79,79,74,69,89,76,65,29.95,29.90,8,2,19,0.00
2013-9-13,90,81,79,78,74,72,87,78,63,29.94,29.90,5,2,13,0.00
2013-9-20,81,81,81,68,68,68,65,65,64,29.84,29.83,3,2,6,0.00
2013-9-30,79,79,79,73,73,73,82,82,82,29.80,29.80,2,2,5,0.00
2013-12-3,49,48,46,42,42,41,85,78,74,30.22,30.18,11,8,25,0.02
2013-12-4,50,47,44,42,40,-100,87,79,71,30.18,30.09,16,10,28,0.13
2013-12-5,60,52,47,44,40,38,77,64,43,30.11,30.06,12,3,21,0.00
2013-12-6,62,54,47,52,43,35,77,65,58,30.09,29.89,5,2,11,0.00
2013-12-10,59,53,47,48,43,37,87,70,55,30.39,30.15,20,14,34,0.01
2013-12-11,47,44,43,37,26,-100,68,58,49,30.54,30.40,22,13,40,0.01
2013-12-12,52,47,43,42,32,-100,76,61,45,30.48,30.27,13,5,22,0.00
2013-12-13,53,49,48,46,40,-100,86,79,76,30.28,30.17,9,4,17,0.00
2013-12-14,59,52,46,51,45,40,85,78,69,30.39,30.23,7,3,12,0.00
2013-12-15,63,56,52,55,50,-100,89,82,75,30.40,30.33,6,2,11,0.00
2013-12-16,57,54,51,52,49,44,90,81,71,30.42,30.32,15,9,25,0.00
2013-12-17,52,50,49,45,43,41,82,76,68,30.46,30.38,14,8,27,0.00
2013-12-18,50,47,47,44,39,-100,84,80,77,30.38,30.26,16,8,23,0.00
2013-12-19,55,50,48,45,43,42,82,77,67,30.31,30.26,13,7,25,0.00
2013-12-27,63,59,55,60,56,53,96,90,85,29.87,29.80,22,11,37,1.21
2013-12-28,60,57,55,54,53,49,96,87,73,29.96,29.82,16,9,25,1.22
2013-12-29,62,58,55,52,50,46,82,73,65,30.11,29.94,12,4,23,0.00
2013-12-30,63,55,51,50,46,45,78,74,63,30.15,30.09,5,2,11,0.00